| time (UTC) | temp F | wind direction | speed knots | gust knots | rain 1hr in | rain 24hr in | rain mn in | humidity % | barometer mb |
| 20260510175536 | 83 | 105 | 3.5 | 5.2 | 0.00 | 0.26 | 0.01 | 70 | 1017.8 |
| 20260510174525 | 84 | 134 | 3.5 | 6.1 | 0.00 | 0.27 | 0.01 | 69 | 1017.9 |
| 20260510173536 | 84 | 115 | 3.5 | 6.1 | 0.00 | 0.28 | 0.01 | 68 | 1017.9 |
| 20260510172523 | 84 | 74 | 2.6 | 5.2 | 0.00 | 0.29 | 0.01 | 67 | 1018.0 |
| 20260510171530 | 83 | 155 | 3.5 | 5.2 | 0.00 | 0.32 | 0.01 | 68 | 1018.1 |
| 20260510170540 | 83 | 93 | 1.7 | 6.1 | 0.00 | 0.35 | 0.01 | 69 | 1018.2 |
| 20260510165529 | 82 | 157 | 2.6 | 6.1 | 0.00 | 0.40 | 0.01 | 69 | 1018.3 |
| 20260510164536 | 83 | 55 | 2.6 | 4.3 | 0.00 | 0.53 | 0.01 | 69 | 1018.2 |
| 20260510163525 | 81 | 46 | 2.6 | 5.2 | 0.00 | 0.59 | 0.01 | 71 | 1018.2 |
| 20260510162533 | 81 | 110 | 1.7 | 5.2 | 0.00 | 0.61 | 0.01 | 72 | 1018.3 |
| 20260510161525 | 80 | 151 | 3.5 | 5.2 | 0.00 | 0.63 | 0.01 | 73 | 1018.3 |
| 20260510160531 | 80 | 137 | 2.6 | 5.2 | 0.00 | 0.66 | 0.01 | 75 | 1018.2 |
| 20260510155522 | 80 | 154 | 3.5 | 6.1 | 0.00 | 0.70 | 0.01 | 73 | 1017.9 |
| 20260510154528 | 79 | 171 | 2.6 | 4.3 | 0.00 | 0.79 | 0.01 | 75 | 1017.9 |
| 20260510153537 | 79 | 118 | 2.6 | 5.2 | 0.00 | 0.86 | 0.01 | 76 | 1017.9 |
| 20260510152525 | 79 | 105 | 1.7 | 4.3 | 0.00 | 0.86 | 0.01 | 77 | 1018.0 |
| 20260510151535 | 77 | 121 | 2.6 | 5.2 | 0.00 | 0.86 | 0.01 | 80 | 1018.1 |
| 20260510150523 | 76 | 62 | 1.7 | 4.3 | 0.00 | 0.86 | 0.01 | 83 | 1018.2 |
| 20260510145531 | 76 | 96 | 1.7 | 4.3 | 0.00 | 0.87 | 0.01 | 83 | 1018.3 |
| 20260510144521 | 76 | 24 | 2.6 | 4.3 | 0.00 | 0.87 | 0.01 | 84 | 1018.3 |
| 20260510143549 | 76 | 103 | 2.6 | 5.2 | 0.00 | 0.87 | 0.01 | 85 | 1018.1 |
| 20260510142619 | 74 | 37 | 0.9 | 3.5 | 0.00 | 0.87 | 0.01 | 88 | 1018.2 |
| 20260510141526 | 74 | 99 | 1.7 | 4.3 | 0.00 | 0.88 | 0.01 | 88 | 1018.1 |
| 20260510140534 | 74 | 0.0 | 0.0 | 0.00 | 0.90 | 0.01 | 90 | 1018.0 | |
| 20260510135523 | 73 | 180 | 0.0 | 2.6 | 0.00 | 0.93 | 0.01 | 92 | 1018.0 |
| 20260510134534 | 72 | 32 | 0.9 | 4.3 | 0.00 | 0.96 | 0.01 | 94 | 1018.1 |
| 20260510133521 | 71 | 0.0 | 0.0 | 0.00 | 1.12 | 0.01 | 95 | 1018.0 | |
| 20260510132529 | 71 | 45 | 0.9 | 3.5 | 0.00 | 1.32 | 0.01 | 97 | 1017.9 |
| 20260510131537 | 71 | 45 | 0.9 | 1.7 | 0.00 | 1.64 | 0.01 | 97 | 1017.8 |
| 20260510130548 | 71 | 0.0 | 1.7 | 0.00 | 1.72 | 0.01 | 97 | 1017.5 | |
| 20260510125534 | 70 | 90 | 0.9 | 4.3 | 0.00 | 1.72 | 0.01 | 97 | 1017.3 |
| 20260510124524 | 69 | 135 | 0.0 | 3.5 | 0.00 | 1.72 | 0.01 | 97 | 1017.3 |
| 20260510123554 | 69 | 0.0 | 3.5 | 0.00 | 1.72 | 0.01 | 97 | 1017.1 | |
| 20260510122544 | 68 | 0.0 | 0.0 | 0.00 | 1.72 | 0.01 | 97 | 1016.9 | |
| 20260510121550 | 68 | 0.0 | 0.0 | 0.00 | 1.72 | 0.01 | 97 | 1016.8 | |
| 20260510120537 | 68 | 45 | 0.0 | 1.7 | 0.00 | 1.72 | 0.01 | 97 | 1016.7 |
| 20260510115527 | 68 | 45 | 0.0 | 1.7 | 0.00 | 1.72 | 0.01 | 97 | 1016.5 |
| 20260510114556 | 68 | 45 | 0.0 | 1.7 | 0.00 | 1.72 | 0.01 | 97 | 1016.4 |
| 20260510113524 | 68 | 60 | 0.0 | 0.9 | 0.00 | 1.72 | 0.01 | 97 | 1016.1 |
| 20260510112615 | 67 | 45 | 0.0 | 0.9 | 0.00 | 1.72 | 0.01 | 97 | 1016.0 |
| 20260510111523 | 67 | 0.0 | 0.0 | 0.00 | 1.72 | 0.01 | 97 | 1015.9 | |
| 20260510110529 | 67 | 0.0 | 0.0 | 0.00 | 1.72 | 0.01 | 97 | 1015.8 | |
| 20260510105522 | 67 | 0.0 | 0.0 | 0.00 | 1.72 | 0.01 | 97 | 1015.6 | |
| 20260510104547 | 68 | 90 | 0.0 | 2.6 | 0.00 | 1.72 | 0.01 | 97 | 1015.3 |
| 20260510103535 | 68 | 0.0 | 0.0 | 0.00 | 1.72 | 0.01 | 97 | 1015.2 | |
| 20260510102526 | 68 | 0.0 | 0.0 | 0.00 | 1.72 | 0.01 | 97 | 1015.0 | |
| 20260510101533 | 68 | 0.0 | 0.9 | 0.00 | 1.72 | 0.01 | 97 | 1014.8 | |
| 20260510100522 | 68 | 45 | 0.0 | 1.7 | 0.01 | 1.72 | 0.01 | 97 | 1014.7 |
| 20260510095530 | 68 | 45 | 0.0 | 2.6 | 0.01 | 1.72 | 0.01 | 97 | 1014.7 |
| 20260510094520 | 68 | 0.0 | 0.0 | 0.01 | 1.72 | 0.01 | 97 | 1014.7 | |
| 20260510093529 | 68 | 0.0 | 0.0 | 0.01 | 1.72 | 0.01 | 96 | 1014.7 | |
| 20260510092536 | 68 | 0.0 | 1.7 | 0.01 | 1.72 | 0.01 | 96 | 1014.6 | |
| 20260510091525 | 68 | 353 | 0.0 | 1.7 | 0.01 | 1.72 | 0.01 | 96 | 1014.4 |
| 20260510090534 | 67 | 0 | 0.0 | 2.6 | 0.00 | 1.71 | 0.00 | 96 | 1014.4 |
| 20260510085523 | 67 | 0.0 | 0.0 | 0.00 | 1.71 | 0.00 | 96 | 1014.4 | |
| 20260510084531 | 68 | 0.0 | 0.0 | 0.00 | 1.71 | 0.00 | 96 | 1014.5 | |
| 20260510083521 | 68 | 0.0 | 0.0 | 0.00 | 1.71 | 0.00 | 96 | 1014.5 | |
| 20260510082530 | 68 | 0.0 | 0.0 | 0.00 | 1.71 | 0.00 | 96 | 1014.6 | |
| 20260510081537 | 67 | 0.0 | 0.0 | 0.00 | 1.71 | 0.00 | 96 | 1014.4 | |
| 20260510080525 | 66 | 0.0 | 0.0 | 0.00 | 1.71 | 0.00 | 96 | 1014.1 | |
| 20260510075533 | 65 | 0.0 | 0.0 | 0.00 | 1.71 | 0.00 | 95 | 1014.2 | |
| 20260510074523 | 65 | 0.0 | 0.0 | 0.00 | 1.72 | 0.00 | 95 | 1014.2 | |
| 20260510073531 | 65 | 0.0 | 0.0 | 0.00 | 1.72 | 0.00 | 95 | 1014.0 | |
| 20260510072521 | 65 | 0.0 | 0.0 | 0.00 | 1.72 | 0.00 | 95 | 1013.9 | |
| 20260510071548 | 65 | 0.0 | 0.0 | 0.00 | 1.72 | 0.00 | 95 | 1013.8 | |
| 20260510070746 | 0 | 0.0 | 0.0 | 0.00 | 1.72 | 0.00 | 1013.9 | ||
| 20260510070537 | 66 | 0.0 | 0.0 | 0.00 | 1.72 | 0.00 | 95 | 1014.0 | |
| 20260510065526 | 66 | 0.0 | 0.0 | 0.00 | 1.72 | 0.00 | 95 | 1014.1 | |
| 20260510064535 | 66 | 0.0 | 0.0 | 0.00 | 1.72 | 0.00 | 95 | 1014.1 | |
| 20260510063524 | 66 | 0.0 | 0.0 | 0.00 | 1.72 | 0.00 | 95 | 1013.9 | |
| 20260510062532 | 66 | 0.0 | 0.0 | 0.00 | 1.72 | 0.00 | 95 | 1013.9 | |
| 20260510061542 | 66 | 0.0 | 0.0 | 0.00 | 1.72 | 0.00 | 95 | 1014.1 | |
| 20260510060529 | 66 | 0.0 | 0.0 | 0.00 | 1.72 | 0.00 | 95 | 1014.1 | |
| 20260510055558 | 67 | 0.0 | 0.0 | 0.00 | 1.72 | 0.00 | 95 | 1014.2 | |
| 20260510054527 | 67 | 0.0 | 0.0 | 0.00 | 1.72 | 0.00 | 95 | 1014.1 | |
| 20260510053535 | 67 | 0.0 | 0.0 | 0.00 | 1.72 | 0.00 | 95 | 1013.8 | |
| 20260510052524 | 67 | 0.0 | 0.0 | 0.00 | 1.72 | 0.00 | 95 | 1014.0 | |
| 20260510051532 | 68 | 0.0 | 0.0 | 0.00 | 1.72 | 0.00 | 95 | 1013.9 | |
| 20260510050522 | 68 | 142 | 0.9 | 1.7 | 0.00 | 1.72 | 0.00 | 95 | 1014.1 |
| 20260510045530 | 68 | 149 | 1.7 | 3.5 | 0.00 | 1.72 | 1.72 | 95 | 1014.1 |
| 20260510044520 | 68 | 172 | 1.7 | 4.3 | 0.00 | 1.72 | 1.72 | 95 | 1014.1 |
| 20260510043528 | 68 | 144 | 1.7 | 4.3 | 0.00 | 1.72 | 1.72 | 95 | 1014.2 |
| 20260510042535 | 68 | 0.0 | 0.0 | 0.00 | 1.72 | 1.72 | 95 | 1014.5 | |
| 20260510041524 | 68 | 119 | 0.9 | 2.6 | 0.00 | 1.72 | 1.72 | 95 | 1014.3 |
| 20260510040532 | 68 | 156 | 1.7 | 4.3 | 0.00 | 1.72 | 1.72 | 95 | 1014.2 |
| 20260510035523 | 68 | 149 | 2.6 | 4.3 | 0.00 | 1.72 | 1.72 | 95 | 1014.4 |
| 20260510034529 | 68 | 151 | 3.5 | 5.2 | 0.00 | 1.72 | 1.72 | 95 | 1014.5 |
| 20260510033520 | 68 | 141 | 1.7 | 4.3 | 0.00 | 1.72 | 1.72 | 95 | 1014.7 |
| 20260510032527 | 68 | 0.0 | 0.0 | 0.00 | 1.72 | 1.72 | 94 | 1014.7 | |
| 20260510031535 | 68 | 0.0 | 0.0 | 0.00 | 1.72 | 1.72 | 94 | 1014.8 | |
| 20260510030526 | 68 | 0.0 | 0.0 | 0.00 | 1.72 | 1.72 | 94 | 1014.8 | |
| 20260510025533 | 68 | 0.0 | 0.0 | 0.00 | 1.72 | 1.72 | 94 | 1015.0 | |
| 20260510024522 | 68 | 0.0 | 0.0 | 0.00 | 1.72 | 1.72 | 94 | 1014.9 | |
| 20260510023531 | 68 | 0.0 | 0.0 | 0.00 | 1.72 | 1.72 | 94 | 1014.7 | |
| 20260510022520 | 68 | 0.0 | 0.0 | 0.00 | 1.72 | 1.72 | 94 | 1014.5 | |
| 20260510021527 | 68 | 0.0 | 0.0 | 0.00 | 1.72 | 1.72 | 94 | 1014.1 | |
| 20260510020536 | 68 | 0.0 | 0.0 | 0.00 | 1.72 | 1.72 | 94 | 1014.1 | |
| 20260510015526 | 69 | 0.0 | 0.0 | 0.00 | 1.72 | 1.72 | 94 | 1014.1 | |
| 20260510014533 | 69 | 162 | 3.5 | 5.2 | 0.00 | 1.72 | 1.72 | 94 | 1014.1 |
| 20260510013525 | 69 | 153 | 3.5 | 5.2 | 0.00 | 1.72 | 1.72 | 94 | 1013.8 |
| 20260510012530 | 69 | 145 | 1.7 | 4.3 | 0.01 | 1.72 | 1.72 | 94 | 1013.9 |
| 20260510011540 | 69 | 127 | 1.7 | 3.5 | 0.01 | 1.72 | 1.72 | 94 | 1013.7 |
| 20260510010528 | 69 | 163 | 2.6 | 5.2 | 0.01 | 1.72 | 1.72 | 94 | 1013.7 |
| 20260510005536 | 69 | 156 | 2.6 | 5.2 | 0.01 | 1.72 | 1.72 | 94 | 1013.8 |
| 20260510004525 | 69 | 147 | 2.6 | 4.3 | 0.01 | 1.72 | 1.72 | 94 | 1013.8 |
| 20260510003553 | 69 | 141 | 2.6 | 4.3 | 0.01 | 1.72 | 1.72 | 94 | 1013.8 |
| 20260510002604 | 69 | 168 | 3.5 | 5.2 | 0.02 | 1.71 | 1.71 | 94 | 1013.8 |
| 20260510001530 | 69 | 154 | 1.7 | 3.5 | 0.03 | 1.71 | 1.71 | 94 | 1013.8 |
| 20260510000521 | 69 | 136 | 1.7 | 2.6 | 0.05 | 1.71 | 1.71 | 94 | 1013.6 |
| 20260509235528 | 69 | 145 | 2.6 | 4.3 | 0.05 | 1.71 | 1.71 | 94 | 1013.8 |
| 20260509234537 | 69 | 141 | 1.7 | 2.6 | 0.05 | 1.71 | 1.71 | 94 | 1013.6 |
| 20260509233525 | 69 | 158 | 0.9 | 4.3 | 0.05 | 1.71 | 1.71 | 94 | 1013.7 |
| 20260509232535 | 69 | 146 | 3.5 | 4.3 | 0.03 | 1.69 | 1.69 | 94 | 1014.2 |
| 20260509231522 | 69 | 149 | 2.6 | 4.3 | 0.02 | 1.68 | 1.68 | 93 | 1013.9 |
| 20260509230530 | 69 | 138 | 0.9 | 2.6 | 0.00 | 1.66 | 1.66 | 93 | 1014.0 |
| 20260509225541 | 69 | 154 | 1.7 | 3.5 | 0.01 | 1.66 | 1.66 | 93 | 1013.8 |
| 20260509224528 | 69 | 150 | 3.5 | 4.3 | 0.02 | 1.66 | 1.66 | 93 | 1013.6 |
| 20260509223537 | 70 | 158 | 1.7 | 2.6 | 0.02 | 1.67 | 1.66 | 93 | 1013.6 |
| 20260509222524 | 70 | 161 | 0.9 | 1.7 | 0.02 | 1.67 | 1.66 | 93 | 1013.0 |
| 20260509221533 | 70 | 170 | 0.0 | 1.7 | 0.02 | 1.68 | 1.66 | 93 | 1012.9 |
| 20260509220522 | 70 | 0.0 | 0.0 | 0.02 | 1.68 | 1.66 | 93 | 1013.0 | |
| 20260509215530 | 70 | 0.0 | 0.0 | 0.01 | 1.69 | 1.65 | 92 | 1013.3 | |
| 20260509214519 | 70 | 186 | 0.9 | 3.5 | 0.00 | 1.68 | 1.64 | 92 | 1013.6 |
| 20260509213528 | 69 | 147 | 2.6 | 4.3 | 0.00 | 1.68 | 1.64 | 92 | 1013.3 |
| 20260509212535 | 69 | 155 | 3.5 | 5.2 | 0.00 | 1.69 | 1.64 | 92 | 1012.7 |
| 20260509211525 | 69 | 149 | 4.3 | 7.0 | 0.00 | 1.71 | 1.64 | 92 | 1012.7 |
| 20260509210532 | 70 | 156 | 2.6 | 4.3 | 0.01 | 1.78 | 1.64 | 92 | 1012.7 |
| 20260509205523 | 70 | 161 | 2.6 | 6.1 | 0.02 | 1.81 | 1.64 | 93 | 1012.6 |
| 20260509204530 | 69 | 147 | 3.5 | 6.1 | 0.04 | 1.90 | 1.64 | 93 | 1012.8 |
| 20260509203522 | 69 | 142 | 1.7 | 3.5 | 0.05 | 2.06 | 1.64 | 94 | 1012.8 |
| 20260509202609 | 69 | 0.0 | 0.0 | 0.06 | 2.15 | 1.64 | 94 | 1013.2 | |
| 20260509201539 | 68 | 0.0 | 0.0 | 0.08 | 2.15 | 1.64 | 94 | 1013.8 | |
| 20260509200626 | 68 | 160 | 1.7 | 4.3 | 0.08 | 2.14 | 1.63 | 94 | 1014.1 |
| 20260509195533 | 68 | 158 | 0.0 | 2.6 | 0.08 | 2.13 | 1.62 | 94 | 1014.0 |
| 20260509194523 | 68 | 158 | 0.9 | 2.6 | 0.07 | 2.11 | 1.60 | 95 | 1013.9 |
| 20260509193530 | 68 | 0.0 | 0.0 | 0.07 | 2.10 | 1.59 | 95 | 1014.0 | |
| 20260509192522 | 68 | 0.0 | 0.0 | 0.08 | 2.09 | 1.58 | 95 | 1014.4 | |
| 20260509191529 | 68 | 0.0 | 0.0 | 0.07 | 2.07 | 1.56 | 95 | 1014.7 | |
| 20260509190537 | 68 | 158 | 0.0 | 0.9 | 0.07 | 2.06 | 1.55 | 95 | 1014.7 |
| 20260509185525 | 68 | 113 | 0.0 | 1.7 | 0.07 | 2.05 | 1.54 | 95 | 1014.4 |
| 20260509184533 | 68 | 135 | 0.0 | 0.9 | 0.07 | 2.04 | 1.53 | 95 | 1014.4 |
| 20260509183524 | 67 | 155 | 1.7 | 4.3 | 0.07 | 2.03 | 1.52 | 95 | 1014.1 |
| 20260509182531 | 67 | 143 | 1.7 | 5.2 | 0.06 | 2.01 | 1.50 | 95 | 1014.3 |
| 20260509181520 | 67 | 174 | 2.6 | 5.2 | 0.08 | 2.00 | 1.49 | 95 | 1014.1 |
| 20260509180528 | 67 | 147 | 0.9 | 3.5 | 0.10 | 1.99 | 1.48 | 95 | 1014.5 |